Year,Month,Day,Hour,Minute,Value (Times are PST for temperature in C)
2017,06,25,00,00,19.80
2017,06,25,00,01,19.90
2017,06,25,00,02,19.90
2017,06,25,00,03,19.90
2017,06,25,00,04,19.90
2017,06,25,00,05,19.90
2017,06,25,00,06,20.00
2017,06,25,00,07,20.00
2017,06,25,00,08,20.00
2017,06,25,00,09,20.00
2017,06,25,00,10,20.10
2017,06,25,00,11,20.00
2017,06,25,00,12,20.00
2017,06,25,00,13,20.10
2017,06,25,00,14,20.10
2017,06,25,00,15,20.10
2017,06,25,00,16,20.10
2017,06,25,00,17,20.10
2017,06,25,00,18,20.20
2017,06,25,00,19,20.20
2017,06,25,00,20,20.20
2017,06,25,00,21,20.20
2017,06,25,00,22,20.20
2017,06,25,00,23,20.20
2017,06,25,00,24,20.20
2017,06,25,00,25,20.20
2017,06,25,00,26,20.10
2017,06,25,00,27,20.00
2017,06,25,00,28,19.90
2017,06,25,00,29,19.90
2017,06,25,00,30,19.80
2017,06,25,00,31,19.70
2017,06,25,00,32,19.60
2017,06,25,00,33,19.50
2017,06,25,00,34,19.40
2017,06,25,00,35,19.30
2017,06,25,00,36,19.20
2017,06,25,00,37,19.10
2017,06,25,00,38,19.10
2017,06,25,00,39,19.00
2017,06,25,00,40,19.00
2017,06,25,00,41,18.90
2017,06,25,00,42,18.90
2017,06,25,00,43,18.80
2017,06,25,00,44,18.80
2017,06,25,00,45,18.80
2017,06,25,00,46,18.80
2017,06,25,00,47,18.90
2017,06,25,00,48,18.90
2017,06,25,00,49,18.90
2017,06,25,00,50,18.90
2017,06,25,00,51,18.90
2017,06,25,00,52,18.90
2017,06,25,00,53,18.90
2017,06,25,00,54,18.80
2017,06,25,00,55,18.80
2017,06,25,00,56,18.80
2017,06,25,00,57,18.80
2017,06,25,00,58,18.70
2017,06,25,00,59,18.70
2017,06,25,01,00,18.60
2017,06,25,01,01,18.60
2017,06,25,01,02,18.50
2017,06,25,01,03,18.40
2017,06,25,01,04,18.30
2017,06,25,01,05,18.20
2017,06,25,01,06,18.10
2017,06,25,01,07,18.00
2017,06,25,01,08,17.90
2017,06,25,01,09,17.80
2017,06,25,01,10,17.70
2017,06,25,01,11,17.60
2017,06,25,01,12,17.60
2017,06,25,01,13,17.50
2017,06,25,01,14,17.40
2017,06,25,01,15,17.30
2017,06,25,01,16,17.20
2017,06,25,01,17,17.20
2017,06,25,01,18,17.10
2017,06,25,01,19,17.10
2017,06,25,01,20,17.10
2017,06,25,01,21,17.10
2017,06,25,01,22,17.10
2017,06,25,01,23,17.10
2017,06,25,01,24,17.10
2017,06,25,01,25,17.10
2017,06,25,01,26,17.10
2017,06,25,01,27,17.10
2017,06,25,01,28,17.10
2017,06,25,01,29,17.10
2017,06,25,01,30,17.10
2017,06,25,01,31,17.10
2017,06,25,01,32,17.00
2017,06,25,01,33,17.00
2017,06,25,01,34,17.00
2017,06,25,01,35,17.00
2017,06,25,01,36,17.00
2017,06,25,01,37,17.00
2017,06,25,01,38,17.00
2017,06,25,01,39,17.00
2017,06,25,01,40,16.90
2017,06,25,01,41,16.90
2017,06,25,01,42,17.00
2017,06,25,01,43,17.00
2017,06,25,01,44,17.00
2017,06,25,01,45,17.00
2017,06,25,01,46,17.00
2017,06,25,01,47,16.90
2017,06,25,01,48,16.90
2017,06,25,01,49,16.90
2017,06,25,01,50,16.90
2017,06,25,01,51,16.90
2017,06,25,01,52,16.80
2017,06,25,01,53,16.80
2017,06,25,01,54,16.80
2017,06,25,01,55,16.80
2017,06,25,01,56,16.80
2017,06,25,01,57,16.80
2017,06,25,01,58,16.70
2017,06,25,01,59,16.70
2017,06,25,02,00,16.70
2017,06,25,02,01,16.60
2017,06,25,02,02,16.60
2017,06,25,02,03,16.60
2017,06,25,02,04,16.50
2017,06,25,02,05,16.50
2017,06,25,02,06,16.50
2017,06,25,02,07,16.50
2017,06,25,02,08,16.50
2017,06,25,02,09,16.50
2017,06,25,02,10,16.40
2017,06,25,02,11,16.40
2017,06,25,02,12,16.40
2017,06,25,02,13,16.50
2017,06,25,02,14,16.50
2017,06,25,02,15,16.50
2017,06,25,02,16,16.50
2017,06,25,02,17,16.50
2017,06,25,02,18,16.50
2017,06,25,02,19,16.50
2017,06,25,02,20,16.50
2017,06,25,02,21,16.50
2017,06,25,02,22,16.50
2017,06,25,02,23,16.40
2017,06,25,02,24,16.40
2017,06,25,02,25,16.40
2017,06,25,02,26,16.30
2017,06,25,02,27,16.30
2017,06,25,02,28,16.30
2017,06,25,02,29,16.30
2017,06,25,02,30,16.40
2017,06,25,02,31,16.40
2017,06,25,02,32,16.40
2017,06,25,02,33,16.40
2017,06,25,02,34,16.40
2017,06,25,02,35,16.40
2017,06,25,02,36,16.40
2017,06,25,02,37,16.40
2017,06,25,02,38,16.40
2017,06,25,02,39,16.40
2017,06,25,02,40,16.40
2017,06,25,02,41,16.40
2017,06,25,02,42,16.40
2017,06,25,02,43,16.30
2017,06,25,02,44,16.30
2017,06,25,02,45,16.30
2017,06,25,02,46,16.20
2017,06,25,02,47,16.20
2017,06,25,02,48,16.20
2017,06,25,02,49,16.20
2017,06,25,02,50,16.10
2017,06,25,02,51,16.10
2017,06,25,02,52,16.10
2017,06,25,02,53,16.10
2017,06,25,02,54,16.00
2017,06,25,02,55,16.00
2017,06,25,02,56,15.90
2017,06,25,02,57,15.90
2017,06,25,02,58,15.80
2017,06,25,02,59,15.80
2017,06,25,03,00,15.80
2017,06,25,03,01,15.90
2017,06,25,03,02,15.90
2017,06,25,03,03,15.90
2017,06,25,03,04,15.90
2017,06,25,03,05,15.90
2017,06,25,03,06,15.90
2017,06,25,03,07,15.90
2017,06,25,03,08,15.90
2017,06,25,03,09,15.90
2017,06,25,03,10,15.90
2017,06,25,03,11,15.90
2017,06,25,03,12,16.00
2017,06,25,03,13,16.00
2017,06,25,03,14,16.00
2017,06,25,03,15,16.00
2017,06,25,03,16,16.00
2017,06,25,03,17,16.10
2017,06,25,03,18,16.00
2017,06,25,03,19,16.00
2017,06,25,03,20,16.00
2017,06,25,03,21,15.90
2017,06,25,03,22,15.90
2017,06,25,03,23,15.80
2017,06,25,03,24,15.80
2017,06,25,03,25,15.70
2017,06,25,03,26,15.70
2017,06,25,03,27,15.70
2017,06,25,03,28,15.70
2017,06,25,03,29,15.70
2017,06,25,03,30,15.70
2017,06,25,03,31,15.70
2017,06,25,03,32,15.70
2017,06,25,03,33,15.70
2017,06,25,03,34,15.70
2017,06,25,03,35,15.80
2017,06,25,03,36,15.80
2017,06,25,03,37,15.80
2017,06,25,03,38,15.80
2017,06,25,03,39,15.80
2017,06,25,03,40,15.90
2017,06,25,03,41,15.90
2017,06,25,03,42,15.90
2017,06,25,03,43,15.90
2017,06,25,03,44,15.90
2017,06,25,03,45,15.90
2017,06,25,03,46,15.90
2017,06,25,03,47,15.90
2017,06,25,03,48,15.90
2017,06,25,03,49,15.90
2017,06,25,03,50,15.90
2017,06,25,03,51,15.90
2017,06,25,03,52,15.90
2017,06,25,03,53,16.00
2017,06,25,03,54,16.00
2017,06,25,03,55,15.90
2017,06,25,03,56,16.00
2017,06,25,03,57,16.00
2017,06,25,03,58,16.10
2017,06,25,03,59,16.10
2017,06,25,04,00,16.20
2017,06,25,04,01,16.30
2017,06,25,04,02,16.40
2017,06,25,04,03,16.50
2017,06,25,04,04,16.60
2017,06,25,04,05,16.60
2017,06,25,04,06,16.70
2017,06,25,04,07,16.70
2017,06,25,04,08,16.70
2017,06,25,04,09,16.80
2017,06,25,04,10,16.80
2017,06,25,04,11,16.80
2017,06,25,04,12,16.80
2017,06,25,04,13,16.80
2017,06,25,04,14,16.80
2017,06,25,04,15,16.80
2017,06,25,04,16,16.80
2017,06,25,04,17,16.80
2017,06,25,04,18,16.80
2017,06,25,04,19,16.80
2017,06,25,04,20,16.80
2017,06,25,04,21,16.80
2017,06,25,04,22,16.80
2017,06,25,04,23,16.80
2017,06,25,04,24,16.70
2017,06,25,04,25,16.80
2017,06,25,04,26,16.80
2017,06,25,04,27,16.80
2017,06,25,04,28,16.80
2017,06,25,04,29,16.80
2017,06,25,04,30,16.80
2017,06,25,04,31,16.80
2017,06,25,04,32,16.80
2017,06,25,04,33,16.80
2017,06,25,04,34,16.80
2017,06,25,04,35,16.70
2017,06,25,04,36,16.70
2017,06,25,04,37,16.70
2017,06,25,04,38,16.70
2017,06,25,04,39,16.70
2017,06,25,04,40,16.70
2017,06,25,04,41,16.70
2017,06,25,04,42,16.70
2017,06,25,04,43,16.70
2017,06,25,04,44,16.70
2017,06,25,04,45,16.70
2017,06,25,04,46,16.70
2017,06,25,04,47,16.70
2017,06,25,04,48,16.70
2017,06,25,04,49,16.70
2017,06,25,04,50,16.70
2017,06,25,04,51,16.60
2017,06,25,04,52,16.60
2017,06,25,04,53,16.60
2017,06,25,04,54,16.60
2017,06,25,04,55,16.60
2017,06,25,04,56,16.60
2017,06,25,04,57,16.60
2017,06,25,04,58,16.60
2017,06,25,04,59,16.60
2017,06,25,05,00,16.60
2017,06,25,05,01,16.70
2017,06,25,05,02,16.60
2017,06,25,05,03,16.60
2017,06,25,05,04,16.60
2017,06,25,05,05,16.60
2017,06,25,05,06,16.60
2017,06,25,05,07,16.70
2017,06,25,05,08,16.70
2017,06,25,05,09,16.70
2017,06,25,05,10,16.70
2017,06,25,05,11,16.80
2017,06,25,05,12,16.80
2017,06,25,05,13,16.80
2017,06,25,05,14,16.80
2017,06,25,05,15,16.80
2017,06,25,05,16,16.80
2017,06,25,05,17,16.80
2017,06,25,05,18,16.80
2017,06,25,05,19,16.80
2017,06,25,05,20,16.80
2017,06,25,05,21,16.80
2017,06,25,05,22,16.80
2017,06,25,05,23,16.80
2017,06,25,05,24,16.80
2017,06,25,05,25,16.80
2017,06,25,05,26,16.80
2017,06,25,05,27,16.80
2017,06,25,05,28,16.80
2017,06,25,05,29,16.80
2017,06,25,05,30,16.80
2017,06,25,05,31,16.80
2017,06,25,05,32,16.80
2017,06,25,05,33,16.80
2017,06,25,05,34,16.80
2017,06,25,05,35,16.70
2017,06,25,05,36,16.70
2017,06,25,05,37,16.70
2017,06,25,05,38,16.70
2017,06,25,05,39,16.60
2017,06,25,05,40,16.70
2017,06,25,05,41,16.70
2017,06,25,05,42,16.70
2017,06,25,05,43,16.70
2017,06,25,05,44,16.80
2017,06,25,05,45,16.80
2017,06,25,05,46,16.80
2017,06,25,05,47,16.90
2017,06,25,05,48,16.90
2017,06,25,05,49,16.90
2017,06,25,05,50,17.00
2017,06,25,05,51,17.00
2017,06,25,05,52,17.00
2017,06,25,05,53,17.10
2017,06,25,05,54,17.10
2017,06,25,05,55,17.10
2017,06,25,05,56,17.20
2017,06,25,05,57,17.20
2017,06,25,05,58,17.20
2017,06,25,05,59,17.30
2017,06,25,06,00,17.30
2017,06,25,06,01,17.40
2017,06,25,06,02,17.40
2017,06,25,06,03,17.40
2017,06,25,06,04,17.40
2017,06,25,06,05,17.50
2017,06,25,06,06,17.60
2017,06,25,06,07,17.60
2017,06,25,06,08,17.70
2017,06,25,06,09,17.80
2017,06,25,06,10,17.90
2017,06,25,06,11,18.00
2017,06,25,06,12,18.10
2017,06,25,06,13,18.20
2017,06,25,06,14,18.30
2017,06,25,06,15,18.40
2017,06,25,06,16,18.50
2017,06,25,06,17,18.50
2017,06,25,06,18,18.60
2017,06,25,06,19,18.70
2017,06,25,06,20,18.70
2017,06,25,06,21,18.70
2017,06,25,06,22,18.80
2017,06,25,06,23,18.80
2017,06,25,06,24,18.80
2017,06,25,06,25,18.80
2017,06,25,06,26,18.80
2017,06,25,06,27,18.80
2017,06,25,06,28,18.70
2017,06,25,06,29,18.70
2017,06,25,06,30,18.70
2017,06,25,06,31,18.70
2017,06,25,06,32,18.70
2017,06,25,06,33,18.70
2017,06,25,06,34,18.70
2017,06,25,06,35,18.70
2017,06,25,06,36,18.70
2017,06,25,06,37,18.70
2017,06,25,06,38,18.70
2017,06,25,06,39,18.60
2017,06,25,06,40,18.60
2017,06,25,06,41,18.60
2017,06,25,06,42,18.50
2017,06,25,06,43,18.40
2017,06,25,06,44,18.40
2017,06,25,06,45,18.40
2017,06,25,06,46,18.40
2017,06,25,06,47,18.50
2017,06,25,06,48,18.50
2017,06,25,06,49,18.60
2017,06,25,06,50,18.60
2017,06,25,06,51,18.70
2017,06,25,06,52,18.80
2017,06,25,06,53,18.80
2017,06,25,06,54,18.80
2017,06,25,06,55,18.90
2017,06,25,06,56,18.90
2017,06,25,06,57,18.90
2017,06,25,06,58,18.90
2017,06,25,06,59,18.90
2017,06,25,07,00,19.00
2017,06,25,07,01,19.00
2017,06,25,07,02,19.10
2017,06,25,07,03,19.10
2017,06,25,07,04,19.20
2017,06,25,07,05,19.20
2017,06,25,07,06,19.30
2017,06,25,07,07,19.30
2017,06,25,07,08,19.30
2017,06,25,07,09,19.30
2017,06,25,07,10,19.30
2017,06,25,07,11,19.30
2017,06,25,07,12,19.30
2017,06,25,07,13,19.30
2017,06,25,07,14,19.30
2017,06,25,07,15,19.30
2017,06,25,07,16,19.30
2017,06,25,07,17,19.40
2017,06,25,07,18,19.50
2017,06,25,07,19,19.60
2017,06,25,07,20,19.70
2017,06,25,07,21,19.70
2017,06,25,07,22,19.80
2017,06,25,07,23,19.90
2017,06,25,07,24,19.90
2017,06,25,07,25,19.90
2017,06,25,07,26,20.00
2017,06,25,07,27,20.00
2017,06,25,07,28,20.00
2017,06,25,07,29,20.00
2017,06,25,07,30,20.00
2017,06,25,07,31,20.00
2017,06,25,07,32,20.00
2017,06,25,07,33,20.00
2017,06,25,07,34,20.00
2017,06,25,07,35,19.90
2017,06,25,07,36,19.90
2017,06,25,07,37,19.90
2017,06,25,07,38,19.90
2017,06,25,07,39,19.90
2017,06,25,07,40,19.90
2017,06,25,07,41,19.80
2017,06,25,07,42,19.80
2017,06,25,07,43,19.80
2017,06,25,07,44,19.80
2017,06,25,07,45,19.80
2017,06,25,07,46,19.80
2017,06,25,07,47,19.80
2017,06,25,07,48,19.80
2017,06,25,07,49,19.90
2017,06,25,07,50,19.90
2017,06,25,07,51,19.90
2017,06,25,07,52,19.90
2017,06,25,07,53,19.90
2017,06,25,07,54,19.90
2017,06,25,07,55,19.90
2017,06,25,07,56,19.90
2017,06,25,07,57,19.90
2017,06,25,07,58,19.90
2017,06,25,07,59,19.80
2017,06,25,08,00,19.80
2017,06,25,08,01,19.80
2017,06,25,08,02,19.90
2017,06,25,08,03,19.90
2017,06,25,08,04,19.90
2017,06,25,08,05,19.90
2017,06,25,08,06,19.90
2017,06,25,08,07,19.90
2017,06,25,08,08,19.90
2017,06,25,08,09,19.90
2017,06,25,08,10,19.90
2017,06,25,08,11,20.00
2017,06,25,08,12,20.10
2017,06,25,08,13,20.20
2017,06,25,08,14,20.30
2017,06,25,08,15,20.40
2017,06,25,08,16,20.60
2017,06,25,08,17,20.70
2017,06,25,08,18,20.80
2017,06,25,08,19,21.00
2017,06,25,08,20,21.10
2017,06,25,08,21,21.20
2017,06,25,08,22,21.30
2017,06,25,08,23,21.40
2017,06,25,08,24,21.50
2017,06,25,08,25,21.70
2017,06,25,08,26,21.80
2017,06,25,08,27,21.90
2017,06,25,08,28,22.00
2017,06,25,08,29,22.10
2017,06,25,08,30,22.20
2017,06,25,08,31,22.30
2017,06,25,08,32,22.40
2017,06,25,08,33,22.40
2017,06,25,08,34,22.50
2017,06,25,08,35,22.50
2017,06,25,08,36,22.60
2017,06,25,08,37,22.70
2017,06,25,08,38,22.80
2017,06,25,08,39,22.90
2017,06,25,08,40,23.00
2017,06,25,08,41,23.10
2017,06,25,08,42,23.20
2017,06,25,08,43,23.30
2017,06,25,08,44,23.30
2017,06,25,08,45,23.30
2017,06,25,08,46,23.30
2017,06,25,08,47,23.40
2017,06,25,08,48,23.40
2017,06,25,08,49,23.40
2017,06,25,08,50,23.50
2017,06,25,08,51,23.60
2017,06,25,08,52,23.70
2017,06,25,08,53,23.70
2017,06,25,08,54,23.70
2017,06,25,08,55,23.70
2017,06,25,08,56,23.70
2017,06,25,08,57,23.80
2017,06,25,08,58,23.70
2017,06,25,08,59,23.70
2017,06,25,09,00,23.70
2017,06,25,09,01,23.70
2017,06,25,09,02,23.70
2017,06,25,09,03,23.70
2017,06,25,09,04,23.70
2017,06,25,09,05,23.70
2017,06,25,09,06,23.70
2017,06,25,09,07,23.70
2017,06,25,09,08,23.70
2017,06,25,09,09,23.80
2017,06,25,09,10,23.80
2017,06,25,09,11,23.80
2017,06,25,09,12,23.80
2017,06,25,09,13,23.80
2017,06,25,09,14,23.70
2017,06,25,09,15,23.70
2017,06,25,09,16,23.70
2017,06,25,09,17,23.80
2017,06,25,09,18,23.80
2017,06,25,09,19,23.90
2017,06,25,09,20,23.90
2017,06,25,09,21,23.90
2017,06,25,09,22,24.00
2017,06,25,09,23,24.00
2017,06,25,09,24,24.00
2017,06,25,09,25,24.00
2017,06,25,09,26,23.90
2017,06,25,09,27,23.90
2017,06,25,09,28,23.90
2017,06,25,09,29,23.90
2017,06,25,09,30,24.10
2017,06,25,09,31,24.20
2017,06,25,09,32,24.30
2017,06,25,09,33,24.30
2017,06,25,09,34,24.30
2017,06,25,09,35,24.30
2017,06,25,09,36,24.30
2017,06,25,09,37,24.30
2017,06,25,09,38,24.40
2017,06,25,09,39,24.30
2017,06,25,09,40,24.30
2017,06,25,09,41,24.20
2017,06,25,09,42,24.20
2017,06,25,09,43,24.20
2017,06,25,09,44,24.30
2017,06,25,09,45,24.30
2017,06,25,09,46,24.30
2017,06,25,09,47,24.40
2017,06,25,09,48,24.50
2017,06,25,09,49,24.60
2017,06,25,09,50,24.70
2017,06,25,09,51,24.80
2017,06,25,09,52,24.80
2017,06,25,09,53,24.80
2017,06,25,09,54,24.80
2017,06,25,09,55,24.80
2017,06,25,09,56,24.80
2017,06,25,09,57,24.90
2017,06,25,09,58,25.10
2017,06,25,09,59,25.20
2017,06,25,10,00,25.20
2017,06,25,10,01,25.10
2017,06,25,10,02,25.00
2017,06,25,10,03,25.00
2017,06,25,10,04,24.90
2017,06,25,10,05,24.90
2017,06,25,10,06,24.90
2017,06,25,10,07,24.80
2017,06,25,10,08,24.80
2017,06,25,10,09,24.80
2017,06,25,10,10,24.80
2017,06,25,10,11,24.90
2017,06,25,10,12,25.00
2017,06,25,10,13,25.00
2017,06,25,10,14,25.10
2017,06,25,10,15,25.20
2017,06,25,10,16,25.20
2017,06,25,10,17,25.10
2017,06,25,10,18,25.00
2017,06,25,10,19,24.90
2017,06,25,10,20,24.90
2017,06,25,10,21,24.90
2017,06,25,10,22,25.00
2017,06,25,10,23,25.00
2017,06,25,10,24,25.10
2017,06,25,10,25,25.10
2017,06,25,10,26,25.10
2017,06,25,10,27,25.10
2017,06,25,10,28,25.20
2017,06,25,10,29,25.30
2017,06,25,10,30,25.40
2017,06,25,10,31,25.50
2017,06,25,10,32,25.60
2017,06,25,10,33,25.60
2017,06,25,10,34,25.60
2017,06,25,10,35,25.50
2017,06,25,10,36,25.40
2017,06,25,10,37,25.30
2017,06,25,10,38,25.30
2017,06,25,10,39,25.20
2017,06,25,10,40,25.00
2017,06,25,10,41,25.00
2017,06,25,10,42,24.90
2017,06,25,10,43,24.90
2017,06,25,10,44,25.00
2017,06,25,10,45,25.20
2017,06,25,10,46,25.30
2017,06,25,10,47,25.30
2017,06,25,10,48,25.30
2017,06,25,10,49,25.30
2017,06,25,10,50,25.30
2017,06,25,10,51,25.30
2017,06,25,10,52,25.30
2017,06,25,10,53,25.40
2017,06,25,10,54,25.40
2017,06,25,10,55,25.40
2017,06,25,10,56,25.30
2017,06,25,10,57,25.20
2017,06,25,10,58,25.10
2017,06,25,10,59,25.10
2017,06,25,11,00,25.10
2017,06,25,11,01,25.20
2017,06,25,11,02,25.30
2017,06,25,11,03,25.20
2017,06,25,11,04,25.20
2017,06,25,11,05,25.30
2017,06,25,11,06,25.40
2017,06,25,11,07,25.50
2017,06,25,11,08,25.60
2017,06,25,11,09,25.60
2017,06,25,11,10,25.60
2017,06,25,11,11,25.60
2017,06,25,11,12,25.60
2017,06,25,11,13,25.60
2017,06,25,11,14,25.60
2017,06,25,11,15,25.50
2017,06,25,11,16,25.50
2017,06,25,11,17,25.40
2017,06,25,11,18,25.30
2017,06,25,11,19,25.10
2017,06,25,11,20,24.90
2017,06,25,11,21,24.80
2017,06,25,11,22,24.70
2017,06,25,11,23,24.60
2017,06,25,11,24,24.60
2017,06,25,11,25,24.50
2017,06,25,11,26,24.40
2017,06,25,11,27,24.40
2017,06,25,11,28,24.40
2017,06,25,11,29,24.50
2017,06,25,11,30,24.60
2017,06,25,11,31,24.70
2017,06,25,11,32,24.80
2017,06,25,11,33,24.90
2017,06,25,11,34,25.00
2017,06,25,11,35,25.10
2017,06,25,11,36,25.10
2017,06,25,11,37,25.20
2017,06,25,11,38,25.30
2017,06,25,11,39,25.40
2017,06,25,11,40,25.60
2017,06,25,11,41,25.70
2017,06,25,11,42,25.80
2017,06,25,11,43,26.00
2017,06,25,11,44,26.00
2017,06,25,11,45,26.10
2017,06,25,11,46,26.00
2017,06,25,11,47,25.90
2017,06,25,11,48,25.90
2017,06,25,11,49,25.90
2017,06,25,11,50,25.90
2017,06,25,11,51,25.90
2017,06,25,11,52,25.80
2017,06,25,11,53,25.90
2017,06,25,11,54,25.90
2017,06,25,11,55,25.90
2017,06,25,11,56,25.90
2017,06,25,11,57,25.90
2017,06,25,11,58,25.90
2017,06,25,11,59,25.80
2017,06,25,12,00,25.70
2017,06,25,12,01,25.60
2017,06,25,12,02,25.60
2017,06,25,12,03,25.60
2017,06,25,12,04,25.50
2017,06,25,12,05,25.40
2017,06,25,12,06,25.40
2017,06,25,12,07,25.40
2017,06,25,12,08,25.40
2017,06,25,12,09,25.40
2017,06,25,12,10,25.40
2017,06,25,12,11,25.30
2017,06,25,12,12,25.30
2017,06,25,12,13,25.20
2017,06,25,12,14,25.20
2017,06,25,12,15,25.20
2017,06,25,12,16,25.20
2017,06,25,12,17,25.20
2017,06,25,12,18,25.20
2017,06,25,12,19,25.20
2017,06,25,12,20,25.30
2017,06,25,12,21,25.30
2017,06,25,12,22,25.40
2017,06,25,12,23,25.40
2017,06,25,12,24,25.40
2017,06,25,12,25,25.40
2017,06,25,12,26,25.30
2017,06,25,12,27,25.30
2017,06,25,12,28,25.30
2017,06,25,12,29,25.20
2017,06,25,12,30,25.10
2017,06,25,12,31,25.00
2017,06,25,12,32,25.00
2017,06,25,12,33,25.10
2017,06,25,12,34,25.10
2017,06,25,12,35,25.10
2017,06,25,12,36,25.10
2017,06,25,12,37,25.10
2017,06,25,12,38,25.10
2017,06,25,12,39,25.20
2017,06,25,12,40,25.20
2017,06,25,12,41,25.20
2017,06,25,12,42,25.20
2017,06,25,12,43,25.20
2017,06,25,12,44,25.10
2017,06,25,12,45,25.10
2017,06,25,12,46,25.10
2017,06,25,12,47,25.10
2017,06,25,12,48,25.10
2017,06,25,12,49,25.10
2017,06,25,12,50,25.20
2017,06,25,12,51,25.10
2017,06,25,12,52,25.10
2017,06,25,12,53,25.10
2017,06,25,12,54,25.10
2017,06,25,12,55,25.10
2017,06,25,12,56,25.10
2017,06,25,12,57,25.10
2017,06,25,12,58,25.20
2017,06,25,12,59,25.20
2017,06,25,13,00,25.20
2017,06,25,13,01,25.20
2017,06,25,13,02,25.30
2017,06,25,13,03,25.30
2017,06,25,13,04,25.30
2017,06,25,13,05,25.30
2017,06,25,13,06,25.40
2017,06,25,13,07,25.60
2017,06,25,13,08,25.70
2017,06,25,13,09,25.80
2017,06,25,13,10,25.90
2017,06,25,13,11,26.00
2017,06,25,13,12,26.10
2017,06,25,13,13,26.30
2017,06,25,13,14,26.40
2017,06,25,13,15,26.50
2017,06,25,13,16,26.60
2017,06,25,13,17,26.70
2017,06,25,13,18,26.70
2017,06,25,13,19,26.70
2017,06,25,13,20,26.70
2017,06,25,13,21,26.70
2017,06,25,13,22,26.80
2017,06,25,13,23,26.80
2017,06,25,13,24,26.90
2017,06,25,13,25,27.00
2017,06,25,13,26,27.10
2017,06,25,13,27,27.10
2017,06,25,13,28,27.20
2017,06,25,13,29,27.20
2017,06,25,13,30,27.20
2017,06,25,13,31,27.30
2017,06,25,13,32,27.40
2017,06,25,13,33,27.40
2017,06,25,13,34,27.50
2017,06,25,13,35,27.40
2017,06,25,13,36,27.30
2017,06,25,13,37,27.30
2017,06,25,13,38,27.20
2017,06,25,13,39,27.10
2017,06,25,13,40,27.20
2017,06,25,13,41,27.20
2017,06,25,13,42,27.30
2017,06,25,13,43,27.40
2017,06,25,13,44,27.40
2017,06,25,13,45,27.50
2017,06,25,13,46,27.60
2017,06,25,13,47,27.70
2017,06,25,13,48,27.80
2017,06,25,13,49,27.90
2017,06,25,13,50,27.90
2017,06,25,13,51,27.80
2017,06,25,13,52,27.80
2017,06,25,13,53,27.70
2017,06,25,13,54,27.70
2017,06,25,13,55,27.70
2017,06,25,13,56,27.70
2017,06,25,13,57,27.70
2017,06,25,13,58,27.60
2017,06,25,13,59,27.50
2017,06,25,14,00,27.50
2017,06,25,14,01,27.40
2017,06,25,14,02,27.40
2017,06,25,14,03,27.30
2017,06,25,14,04,27.30
2017,06,25,14,05,27.20
2017,06,25,14,06,27.20
2017,06,25,14,07,27.20
2017,06,25,14,08,27.20
2017,06,25,14,09,27.20
2017,06,25,14,10,27.20
2017,06,25,14,11,27.20
2017,06,25,14,12,27.10
2017,06,25,14,13,27.10
2017,06,25,14,14,27.10
2017,06,25,14,15,27.10
2017,06,25,14,16,27.20
2017,06,25,14,17,27.10
2017,06,25,14,18,27.10
2017,06,25,14,19,27.10
2017,06,25,14,20,27.00
2017,06,25,14,21,26.90
2017,06,25,14,22,26.80
2017,06,25,14,23,26.80
2017,06,25,14,24,26.80
2017,06,25,14,25,26.70
2017,06,25,14,26,26.70
2017,06,25,14,27,26.70
2017,06,25,14,28,26.70
2017,06,25,14,29,26.70
2017,06,25,14,30,26.70
2017,06,25,14,31,26.80
2017,06,25,14,32,26.80
2017,06,25,14,33,26.80
2017,06,25,14,34,26.80
2017,06,25,14,35,26.90
2017,06,25,14,36,26.90
2017,06,25,14,37,27.00
2017,06,25,14,38,27.10
2017,06,25,14,39,27.20
2017,06,25,14,40,27.20
2017,06,25,14,41,27.20
2017,06,25,14,42,27.20
2017,06,25,14,43,27.30
2017,06,25,14,44,27.30
2017,06,25,14,45,27.30
2017,06,25,14,46,27.30
2017,06,25,14,47,27.30
2017,06,25,14,48,27.30
2017,06,25,14,49,27.30
2017,06,25,14,50,27.30
2017,06,25,14,51,27.30
2017,06,25,14,52,27.40
2017,06,25,14,53,27.50
2017,06,25,14,54,27.50
2017,06,25,14,55,27.60
2017,06,25,14,56,27.70
2017,06,25,14,57,27.70
2017,06,25,14,58,27.80
2017,06,25,14,59,27.80
2017,06,25,15,00,27.90
2017,06,25,15,01,27.90
2017,06,25,15,02,27.90
2017,06,25,15,03,27.90
2017,06,25,15,04,28.00
2017,06,25,15,05,28.10
2017,06,25,15,06,28.20
2017,06,25,15,07,28.30
2017,06,25,15,08,28.40
2017,06,25,15,09,28.40
2017,06,25,15,10,28.50
2017,06,25,15,11,28.50
2017,06,25,15,12,28.60
2017,06,25,15,13,28.60
2017,06,25,15,14,28.50
2017,06,25,15,15,28.50
2017,06,25,15,16,28.50
2017,06,25,15,17,28.50
2017,06,25,15,18,28.50
2017,06,25,15,19,28.50
2017,06,25,15,20,28.50
2017,06,25,15,21,28.50
2017,06,25,15,22,28.50
2017,06,25,15,23,28.50
2017,06,25,15,24,28.50
2017,06,25,15,25,28.60
2017,06,25,15,26,28.70
2017,06,25,15,27,28.80
2017,06,25,15,28,28.90
2017,06,25,15,29,28.90
2017,06,25,15,30,29.00
2017,06,25,15,31,29.00
2017,06,25,15,32,29.00
2017,06,25,15,33,29.00
2017,06,25,15,34,29.00
2017,06,25,15,35,29.00
2017,06,25,15,36,29.10
2017,06,25,15,37,29.10
2017,06,25,15,38,29.20
2017,06,25,15,39,29.30
2017,06,25,15,40,29.40
2017,06,25,15,41,29.40
2017,06,25,15,42,29.40
2017,06,25,15,43,29.40
2017,06,25,15,44,29.30
2017,06,25,15,45,29.30
2017,06,25,15,46,29.20
2017,06,25,15,47,29.10
2017,06,25,15,48,29.00
2017,06,25,15,49,28.90
2017,06,25,15,50,28.90
2017,06,25,15,51,28.90
2017,06,25,15,52,28.90
2017,06,25,15,53,28.90
2017,06,25,15,54,28.90
2017,06,25,15,55,28.90
2017,06,25,15,56,28.90
2017,06,25,15,57,28.90
2017,06,25,15,58,28.90
2017,06,25,15,59,28.80
2017,06,25,16,00,28.80
2017,06,25,16,01,28.80
2017,06,25,16,02,28.80
2017,06,25,16,03,28.80
2017,06,25,16,04,28.80
2017,06,25,16,05,28.70
2017,06,25,16,06,28.70
2017,06,25,16,07,28.80
2017,06,25,16,08,28.80
2017,06,25,16,09,28.80
2017,06,25,16,10,28.80
2017,06,25,16,11,28.80
2017,06,25,16,12,28.90
2017,06,25,16,13,29.00
2017,06,25,16,14,29.00
2017,06,25,16,15,29.00
2017,06,25,16,16,29.00
2017,06,25,16,17,29.00
2017,06,25,16,18,28.90
2017,06,25,16,19,28.90
2017,06,25,16,20,28.90
2017,06,25,16,21,28.90
2017,06,25,16,22,28.90
2017,06,25,16,23,29.00
2017,06,25,16,24,29.00
2017,06,25,16,25,29.10
2017,06,25,16,26,29.10
2017,06,25,16,27,29.20
2017,06,25,16,28,29.30
2017,06,25,16,29,29.30
2017,06,25,16,30,29.40
2017,06,25,16,31,29.40
2017,06,25,16,32,29.40
2017,06,25,16,33,29.40
2017,06,25,16,34,29.30
2017,06,25,16,35,29.20
2017,06,25,16,36,29.20
2017,06,25,16,37,29.20
2017,06,25,16,38,29.20
2017,06,25,16,39,29.20
2017,06,25,16,40,29.20
2017,06,25,16,41,29.30
2017,06,25,16,42,29.40
2017,06,25,16,43,29.40
2017,06,25,16,44,29.40
2017,06,25,16,45,29.40
2017,06,25,16,46,29.40
2017,06,25,16,47,29.30
2017,06,25,16,48,29.30
2017,06,25,16,49,29.30
2017,06,25,16,50,29.30
2017,06,25,16,51,29.30
2017,06,25,16,52,29.20
2017,06,25,16,53,29.20
2017,06,25,16,54,29.30
2017,06,25,16,55,29.40
2017,06,25,16,56,29.50
2017,06,25,16,57,29.60
2017,06,25,16,58,29.50
2017,06,25,16,59,29.40
2017,06,25,17,00,29.40
2017,06,25,17,01,29.40
2017,06,25,17,02,29.40
2017,06,25,17,03,29.40
2017,06,25,17,04,29.40
2017,06,25,17,05,29.40
2017,06,25,17,06,29.40
2017,06,25,17,07,29.30
2017,06,25,17,08,29.20
2017,06,25,17,09,29.20
2017,06,25,17,10,29.10
2017,06,25,17,11,29.00
2017,06,25,17,12,28.90
2017,06,25,17,13,28.90
2017,06,25,17,14,28.80
2017,06,25,17,15,28.80
2017,06,25,17,16,28.90
2017,06,25,17,17,28.90
2017,06,25,17,18,28.80
2017,06,25,17,19,28.80